Regional Weather Roundup
Issued by NWS

Home | Current Version | Previous Version | Text Only | Print | Product List | Glossary On
Versions: 1 2 3 4 5 6 7 8 9 10 11 12 13 14 15 16 17 18 19 20 21 22 23 24 25 26 27 28 29 30 31 32 33 34 35 36 37 38 39 40 41 42 43 44 45 46 47 48 49 50
000
ASUS45 KABQ 030510
RWRNM
NEW MEXICO REGIONAL WEATHER ROUNDUP
NATIONAL WEATHER SERVICE ALBUQUERQUE NM
1100 PM MDT SUN AUG 02 2015

NOTE: "FAIR" MEANS FEW OR NO CLOUDS BELOW 12,000 FEET AGL WITH NO
       SIGNIFICANT WEATHER OR OBSTRUCTIONS TO VISION.

      THIS PRODUCT IS RELEASED AS TWO VERSIONS.  ONE VERSION NEAR
      THE TOP OF THE HOUR CONTAINING PRELIMINARY DATA FROM ALBUQUERQUE
      AND OTHER STATIONS.  A FINAL VERSION WITH ADDITIONAL DATA IS
      ISSUED ABOUT 10 MINUTES AFTER THE HOUR.

NMZ501-503-504-510>518-030600-
NORTHWEST PLATEAU/NORTHCENTRAL MOUNTAINS

CITY           SKY/WX    TMP DP  RH WIND       PRES   REMARKS
FARMINGTON     LGT RAIN  62  59  90 E22       30.11F
LOS ALAMOS     LGT RAIN  60  56  85 N6        30.28S
SANTA FE       MOCLDY    65  55  70 N14       30.21R
TAOS           CLOUDY    59  48  67 CALM      30.29R
ANGEL FIRE     MOCLDY    52  51  96 CALM      30.38S

$$
NMZ402-403-502-505>509-030600-
WESTCENTRAL MOUNTAINS/SOUTHWEST MOUNTAINS

CITY           SKY/WX    TMP DP  RH WIND       PRES   REMARKS
GALLUP         PTCLDY    57  54  89 CALM      30.24S
GRANTS         CLOUDY    60  58  93 NW5       30.28S
SILVER CITY      N/A     66  57  72 W6        30.16R

$$
NMZ407-409-411-412-030600-
SOUTHERN DESERTS

CITY           SKY/WX    TMP DP  RH WIND       PRES   REMARKS
LORDSBURG      FAIR      77  57  50 S7        30.04R
DEMING         MOCLDY    72  62  71 E5        30.06S
LAS CRUCES     LGT RAIN  74  63  68 S3        30.12R
HOLLOMAN AFB   PTCLDY    80  55  41 SE9       30.03R
ALAMOGORDO     PTCLDY    75  57  53 SE12      30.06R
T OR C         MOCLDY    74  59  59 W8        30.08R

$$
NMZ519>523-030600-
CENTRAL VALLEYS/CENTRAL HIGHLANDS

CITY           SKY/WX    TMP DP  RH WIND       PRES   REMARKS
ALBUQUERQUE    CLOUDY    73  55  53 CALM      30.15R
DOUBLE EAGLE   CLOUDY    66  60  81 W6        30.19R
MORIARTY ARPT    N/A     68  55  62 E5        30.22R
CLINES CORNERS MOCLDY    62  54  74 E8        30.25R
BELEN          CLOUDY    68  58  70 NW6       30.14R
SOCORRO        FAIR      71  61  70 CALM      30.10R

$$
NMZ524>526-539-540-030600-
SOUTHCENTRAL MOUNTAINS

CITY           SKY/WX    TMP DP  RH WIND       PRES   REMARKS
RUIDOSO          N/A    N/A N/A N/A MISG        N/A

$$
NMZ527>531-030600-
NORTHEAST HIGHLANDS/NORTHEAST PLAINS

CITY           SKY/WX    TMP DP  RH WIND       PRES   REMARKS
RATON          NOT AVBL
CLAYTON        CLOUDY    70  60  70 S3        30.08R

$$
NMZ532>537-030600-
EASTCENTRAL PLAINS

CITY           SKY/WX    TMP DP  RH WIND       PRES   REMARKS
TUCUMCARI      LGT RAIN  69  65  86 CALM      30.05S
CANNON AFB     CLOUDY    71  64  77 N14       30.07R
CLOVIS AIRPORT CLOUDY    73  61  64 NW16      30.09R

$$
NMZ028-029-538-030600-
SOUTHEAST PLAINS

CITY           SKY/WX    TMP DP  RH WIND       PRES   REMARKS
ROSWELL        PTCLDY    81  56  42 NE8       29.99R
ARTESIA        MOCLDY    82  61  47 SE14      29.99R
CARLSBAD       MOCLDY    85  59  41 E8        29.97R
HOBBS            N/A    N/A N/A N/A MISG        N/A


$$



USA.gov is the U.S. government's official web portal to all federal, state and local government web resources and services.